This demonstration page uses our WeatherBlox Daily Observations layout. Learn more.

Left ArrowRight Arrow

38.83388, -104.82136

Hourly Observations for April 27, 2017

Temp ( °F °C ) Dew Point ( °F °C ) Humidity (%) Winds ( mph kmh ) Pressure ( in mb ) Visibility ( mi km ) Precip ( " mm )
12:58 am 00:58 Partly Cloudy 39 4.1 30 -1 70 70 Calm 29.34 993 10 16 0.00 0.00
1:58 am 01:58 Mostly Cloudy 39 3.9 29 -1.6 68 68 SSW 10 17 29.29 992 10 16 0.00 0.00
2:58 am 02:58 Mostly Cloudy 40 4.7 26 -3.3 57 57 S 3 6 29.27 991 10 16 0.00 0.00
3:58 am 03:58 Cloudy 37 3 30 -0.9 76 76 NNE 3 6 29.28 992 10 16 0.00 0.00
5:58 am 05:58 Mostly Cloudy 35 1.9 30 -1 81 81 Calm 29.22 990 10 16 0.00 0.00
6:58 am 06:58 Partly Cloudy 38 3.2 31 -0.7 76 76 ESE 6 9 29.21 989 10 16 0.00 0.00
7:58 am 07:58 Mostly Cloudy 38 3.2 33 0.3 82 82 NNE 6 9 29.22 990 10 16 0.00 0.00
8:58 am 08:58 Mostly Cloudy 40 4.6 33 0.5 75 75 NNE 6 9 29.19 989 10 16 0.00 0.00
9:58 am 09:58 Mostly Cloudy 41 5.1 34 0.9 75 75 ENE 3 6 29.19 989 10 16 0.00 0.00
10:56 am 10:56 Partly Cloudy 47 8.1 33 0.5 59 59 E 3 6 29.16 988 10 16 0.00 0.00
11:56 am 11:56 Mostly Cloudy 48 8.9 32 -0.1 54 54 SE 10 17 29.13 987 10 16 0.00 0.00
12:56 pm 12:56 Mostly Cloudy 51 10.6 28 -2.1 41 41 SSE 8 13 29.07 985 10 16 0.00 0.00
1:03 pm 13:03 Mostly Cloudy with Thunderstorms 50 10 30 -1 47 47 SE 7 11 29.23 990 10 16 0.00 0.00
1:18 pm 13:18 Mostly Cloudy 48 9 32 0 54 54 Calm 29.29 992 10 16 0.00 0.00
1:27 pm 13:27 Mostly Cloudy with Light Rain 48 9 34 1 58 58 Calm 29.29 992 10 16 0.00 0.00
1:54 pm 13:54 Mostly Cloudy 46 8 30 -1 53 53 S 5 7 29.26 991 10 16 0.00 0.00
1:56 pm 13:56 Mostly Cloudy 47 8.4 30 -1.3 51 51 SSW 6 9 29.10 985 10 16 0.00 0.00
2:56 pm 14:56 Mostly Cloudy 45 7.4 34 1.3 66 66 N 20 31 29.11 986 10 16 0.00 0.00
3:56 pm 15:56 Mostly Cloudy 46 7.5 31 -0.8 56 56 NNW 17 28 29.11 986 10 16 0.00 0.00
4:58 pm 16:58 Mostly Cloudy 43 6.2 30 -1 60 60 NNW 15 24 29.17 988 10 16 0.00 0.00
4:59 pm 16:59 Mostly Cloudy 43 6 30 -1 61 61 NW 13 20 29.17 988 10 16 0.00 0.00
5:58 pm 17:58 Mostly Cloudy 43 6 31 -0.3 64 64 N 14 22 29.20 989 10 16 0.00 0.00
6:58 pm 18:58 Partly Cloudy 41 5.1 32 0.1 70 70 NNW 9 15 29.23 990 10 16 0.00 0.00
7:58 pm 19:58 Clear 40 4.2 33 0.4 77 77 NNW 10 17 29.26 991 10 16 0.00 0.00
8:58 pm 20:58 Mostly Cloudy 39 4.1 29 -1.6 67 67 NW 8 13 29.29 992 10 16 0.00 0.00
9:58 pm 21:58 Mostly Clear 39 3.7 21 -6.2 49 49 SW 5 7 29.30 992 10 16 0.00 0.00
10:58 pm 22:58 Partly Cloudy 38 3.6 24 -4.6 55 55 WNW 8 13 29.56 1001 10 16 0.00 0.00
11:58 pm 23:58 Mostly Cloudy 39 3.7 21 -6 50 50 Calm 29.56 1001 10 16 0.00 0.00

Powered by AerisWeather